Location: Arrien
(42.8963°N, 1.0429°E)
Time: 03:24:09
(UTC+00:00)

Landsat 7 - Pass Details

Date: 11 December 2025
Orbit: 680 x 682 km, 97.9° (Epoch: 12 January)

Event Time Altitude Azimuth Distance (km) Brightness Sun altitude
Rises 17:40:17 0° 172° (S) 3,029 7.2 -13.9°
Reaches altitude 10° 17:42:31 10° 174° (S) 2,118 6.5 -14.3°
Maximum altitude 17:47:08 70° 258° (WSW) 730 4.1 -15.1°
Drops below altitude 10° 17:51:48 10° 343° (NNW) 2,134 6.3 -15.9°
Sets 17:54:03 0° 345° (NNW) 3,053 7.1 -16.3°
